contact:dominique.lefevre@mio.osupytheas.fr, maurice.libes@osupytheas.fr, didier.mallarino@osupytheas.fr
Project:EMSO http://www.emso-fr.org/EMSO-France
Depth: 2436.0 m
Title:EMSO Ligure Ouest : Data MII capteur CSTAR
DateTime,Latitude,Longitude,Instrument_Serial,Reference_Counts,Signal_Counts,Corrected_Signal_raw_counts,Calculated_Beam_c_inverse_meters,Internal_thermistor_counts
DateTime,Latitude,Longitude,Instrument_Serial,Reference_Counts,Signal_Counts,Corrected_Signal_raw_counts,Calculated_Beam_c_inverse_meters,Internal_thermistor_counts
2023-12-26T00:02:30,42.805,6.029,CST-1368DR,4076,4300,11176,01.338,553
2023-12-26T00:05:31,42.805,6.029,CST-1368DR,4076,4300,11175,01.338,553
2023-12-26T00:08:33,42.805,6.029,CST-1368DR,4076,4300,11176,01.338,553
2023-12-26T00:11:35,42.805,6.029,CST-1368DR,4076,4300,11175,01.338,553
2023-12-26T00:14:36,42.805,6.029,CST-1368DR,4076,4300,11175,01.338,553
2023-12-26T00:17:38,42.805,6.029,CST-1368DR,4076,4300,11177,01.338,553
2023-12-26T00:20:39,42.805,6.029,CST-1368DR,4076,4301,11178,01.337,553
2023-12-26T00:23:41,42.805,6.029,CST-1368DR,4076,4300,11177,01.338,553
2023-12-26T00:26:42,42.805,6.029,CST-1368DR,4076,4302,11180,01.337,553
2023-12-26T00:29:44,42.805,6.029,CST-1368DR,4076,4301,11178,01.337,553
2023-12-26T00:32:46,42.805,6.029,CST-1368DR,4076,4301,11178,01.337,553
2023-12-26T00:35:47,42.805,6.029,CST-1368DR,4076,4302,11182,01.336,553
2023-12-26T00:38:49,42.805,6.029,CST-1368DR,4076,4302,11181,01.336,553
2023-12-26T00:41:50,42.805,6.029,CST-1368DR,4076,4301,11178,01.337,553
2023-12-26T00:44:52,42.805,6.029,CST-1368DR,4076,4300,11177,01.338,553
2023-12-26T00:47:53,42.805,6.029,CST-1368DR,4076,4302,11181,01.336,553
2023-12-26T00:50:55,42.805,6.029,CST-1368DR,4076,4302,11181,01.336,553
2023-12-26T00:53:57,42.805,6.029,CST-1368DR,4076,4302,11181,01.336,553
2023-12-26T00:56:58,42.805,6.029,CST-1368DR,4076,4301,11179,01.337,553
2023-12-26T01:00:00,42.805,6.029,CST-1368DR,4076,4301,11178,01.337,553
2023-12-26T01:03:01,42.805,6.029,CST-1368DR,4076,4300,11176,01.338,553
2023-12-26T01:06:03,42.805,6.029,CST-1368DR,4076,4301,11179,01.337,553
2023-12-26T01:09:04,42.805,6.029,CST-1368DR,4076,4299,11174,01.339,553
2023-12-26T01:12:06,42.805,6.029,CST-1368DR,4076,4301,11178,01.337,553
2023-12-26T01:15:08,42.805,6.029,CST-1368DR,4076,4300,11176,01.338,553
2023-12-26T01:18:09,42.805,6.029,CST-1368DR,4076,4299,11173,01.339,553
2023-12-26T01:21:11,42.805,6.029,CST-1368DR,4076,4297,11168,01.341,553
2023-12-26T01:24:12,42.805,6.029,CST-1368DR,4076,4299,11172,01.340,553
2023-12-26T01:27:14,42.805,6.029,CST-1368DR,4076,4300,11176,01.338,553
2023-12-26T01:30:16,42.805,6.029,CST-1368DR,4076,4300,11176,01.338,553
2023-12-26T01:33:17,42.805,6.029,CST-1368DR,4076,4300,11175,01.338,553
2023-12-26T01:36:19,42.805,6.029,CST-1368DR,4076,4300,11176,01.338,553
2023-12-26T01:39:20,42.805,6.029,CST-1368DR,4076,4299,11174,01.339,553
2023-12-26T01:42:22,42.805,6.029,CST-1368DR,4076,4300,11177,01.338,553
2023-12-26T01:45:23,42.805,6.029,CST-1368DR,4076,4299,11174,01.339,553
2023-12-26T01:48:25,42.805,6.029,CST-1368DR,4076,4300,11177,01.338,553
2023-12-26T01:51:27,42.805,6.029,CST-1368DR,4076,4298,11170,01.340,553
2023-12-26T01:54:28,42.805,6.029,CST-1368DR,4076,4300,11177,01.338,553
2023-12-26T01:57:30,42.805,6.029,CST-1368DR,4076,4300,11177,01.338,553
2023-12-26T02:00:31,42.805,6.029,CST-1368DR,4076,4299,11173,01.339,553
2023-12-26T02:03:33,42.805,6.029,CST-1368DR,4076,4301,11178,01.337,553
2023-12-26T02:06:34,42.805,6.029,CST-1368DR,4076,4299,11172,01.340,553
2023-12-26T02:09:36,42.805,6.029,CST-1368DR,4076,4300,11176,01.338,553
2023-12-26T02:12:38,42.805,6.029,CST-1368DR,4076,4299,11174,01.339,553
2023-12-26T02:15:39,42.805,6.029,CST-1368DR,4076,4301,11178,01.337,553
2023-12-26T02:18:41,42.805,6.029,CST-1368DR,4076,4299,11174,01.339,553
2023-12-26T02:21:42,42.805,6.029,CST-1368DR,4076,4297,11169,01.341,553
2023-12-26T02:24:44,42.805,6.029,CST-1368DR,4076,4301,11178,01.337,553
2023-12-26T02:27:45,42.805,6.029,CST-1368DR,4076,4299,11173,01.339,553
2023-12-26T02:30:47,42.805,6.029,CST-1368DR,4076,4296,11166,01.342,553
2023-12-26T02:33:49,42.805,6.029,CST-1368DR,4076,4299,11172,01.340,553
2023-12-26T02:36:50,42.805,6.029,CST-1368DR,4076,4298,11170,01.340,553
2023-12-26T02:39:52,42.805,6.029,CST-1368DR,4076,4300,11177,01.338,553
2023-12-26T02:42:53,42.805,6.029,CST-1368DR,4076,4300,11177,01.338,553
2023-12-26T02:45:55,42.805,6.029,CST-1368DR,4076,4299,11174,01.339,553
2023-12-26T02:48:57,42.805,6.029,CST-1368DR,4076,4299,11174,01.339,553
2023-12-26T02:51:58,42.805,6.029,CST-1368DR,4076,4300,11175,01.338,553
2023-12-26T02:55:00,42.805,6.029,CST-1368DR,4076,4299,11173,01.339,553
2023-12-26T02:58:01,42.805,6.029,CST-1368DR,4076,4300,11175,01.338,553
2023-12-26T03:01:03,42.805,6.029,CST-1368DR,4076,4299,11172,01.340,553
2023-12-26T03:04:04,42.805,6.029,CST-1368DR,4076,4300,11176,01.338,553
2023-12-26T03:07:06,42.805,6.029,CST-1368DR,4076,4300,11176,01.338,553
2023-12-26T03:10:08,42.805,6.029,CST-1368DR,4076,4301,11178,01.337,553
2023-12-26T03:13:09,42.805,6.029,CST-1368DR,4076,4305,11188,01.334,553
2023-12-26T03:16:11,42.805,6.029,CST-1368DR,4076,4302,11182,01.336,553
2023-12-26T03:19:12,42.805,6.029,CST-1368DR,4076,4300,11176,01.338,553
2023-12-26T03:22:14,42.805,6.029,CST-1368DR,4076,4301,11178,01.337,553
2023-12-26T03:25:15,42.805,6.029,CST-1368DR,4076,4301,11179,01.337,553
2023-12-26T03:28:17,42.805,6.029,CST-1368DR,4076,4300,11176,01.338,553
2023-12-26T03:31:19,42.805,6.029,CST-1368DR,4076,4300,11177,01.338,553
2023-12-26T03:34:20,42.805,6.029,CST-1368DR,4076,4299,11173,01.339,553
2023-12-26T03:37:22,42.805,6.029,CST-1368DR,4076,4299,11174,01.339,553
2023-12-26T03:40:23,42.805,6.029,CST-1368DR,4076,4299,11172,01.340,553
2023-12-26T03:43:25,42.805,6.029,CST-1368DR,4076,4297,11169,01.341,553
2023-12-26T03:46:27,42.805,6.029,CST-1368DR,4076,4297,11168,01.341,553
2023-12-26T03:49:28,42.805,6.029,CST-1368DR,4076,4296,11167,01.341,553
2023-12-26T03:52:30,42.805,6.029,CST-1368DR,4076,4298,11170,01.340,553
2023-12-26T03:55:31,42.805,6.029,CST-1368DR,4076,4298,11171,01.340,553
2023-12-26T03:58:33,42.805,6.029,CST-1368DR,4076,4300,11175,01.338,553
2023-12-26T04:01:34,42.805,6.029,CST-1368DR,4076,4293,11157,01.345,553
2023-12-26T04:04:36,42.805,6.029,CST-1368DR,4076,4296,11167,01.341,553
2023-12-26T04:07:38,42.805,6.029,CST-1368DR,4076,4298,11170,01.340,553
2023-12-26T04:10:39,42.805,6.029,CST-1368DR,4076,4298,11171,01.340,553
2023-12-26T04:13:41,42.805,6.029,CST-1368DR,4076,4296,11166,01.342,553
2023-12-26T04:16:42,42.805,6.029,CST-1368DR,4076,4297,11169,01.341,553
2023-12-26T04:19:44,42.805,6.029,CST-1368DR,4076,4297,11168,01.341,553
2023-12-26T04:22:45,42.805,6.029,CST-1368DR,4076,4298,11171,01.340,553
2023-12-26T04:25:47,42.805,6.029,CST-1368DR,4076,4295,11164,01.342,553
2023-12-26T04:28:49,42.805,6.029,CST-1368DR,4076,4296,11167,01.341,553
2023-12-26T04:31:50,42.805,6.029,CST-1368DR,4076,4296,11166,01.342,553
2023-12-26T04:34:52,42.805,6.029,CST-1368DR,4076,4297,11168,01.341,553
2023-12-26T04:37:53,42.805,6.029,CST-1368DR,4076,4297,11168,01.341,553
2023-12-26T04:40:55,42.805,6.029,CST-1368DR,4076,4282,11128,01.355,553
2023-12-26T04:43:57,42.805,6.029,CST-1368DR,4076,4296,11166,01.342,553
2023-12-26T04:46:58,42.805,6.029,CST-1368DR,4076,4297,11168,01.341,553
2023-12-26T04:50:00,42.805,6.029,CST-1368DR,4076,4296,11167,01.341,553
2023-12-26T04:53:01,42.805,6.029,CST-1368DR,4076,4297,11168,01.341,553
2023-12-26T04:56:03,42.805,6.029,CST-1368DR,4076,4297,11169,01.341,553
2023-12-26T04:59:04,42.805,6.029,CST-1368DR,4076,4295,11164,01.342,553
2023-12-26T05:02:06,42.805,6.029,CST-1368DR,4076,4297,11167,01.341,553
2023-12-26T05:05:08,42.805,6.029,CST-1368DR,4076,4301,11180,01.337,553
2023-12-26T05:08:09,42.805,6.029,CST-1368DR,4076,4296,11167,01.341,553
2023-12-26T05:11:11,42.805,6.029,CST-1368DR,4076,4296,11167,01.341,553
2023-12-26T05:14:12,42.805,6.029,CST-1368DR,4076,4297,11167,01.341,553
2023-12-26T05:17:14,42.805,6.029,CST-1368DR,4076,4297,11169,01.341,553
2023-12-26T05:20:15,42.805,6.029,CST-1368DR,4076,4295,11163,01.343,553
2023-12-26T05:23:17,42.805,6.029,CST-1368DR,4076,4298,11170,01.340,553
2023-12-26T05:26:19,42.805,6.029,CST-1368DR,4076,4297,11168,01.341,553
2023-12-26T05:29:20,42.805,6.029,CST-1368DR,4076,4298,11171,01.340,553
2023-12-26T05:32:23,42.805,6.029,CST-1368DR,4076,4298,11171,01.340,553
2023-12-26T05:35:25,42.805,6.029,CST-1368DR,4076,4298,11172,01.340,553
2023-12-26T05:38:26,42.805,6.029,CST-1368DR,4076,4297,11169,01.341,553
2023-12-26T05:41:28,42.805,6.029,CST-1368DR,4076,4299,11173,01.339,553
2023-12-26T05:44:30,42.805,6.029,CST-1368DR,4076,4299,11173,01.339,553
2023-12-26T05:47:31,42.805,6.029,CST-1368DR,4076,4299,11172,01.340,553
2023-12-26T05:50:33,42.805,6.029,CST-1368DR,4076,4298,11170,01.340,553
2023-12-26T05:53:34,42.805,6.029,CST-1368DR,4076,4298,11170,01.340,553
2023-12-26T05:56:36,42.805,6.029,CST-1368DR,4076,4298,11170,01.340,553
2023-12-26T05:59:37,42.805,6.029,CST-1368DR,4076,4297,11168,01.341,553
2023-12-26T06:02:39,42.805,6.029,CST-1368DR,4076,4296,11167,01.341,553
2023-12-26T06:05:41,42.805,6.029,CST-1368DR,4076,4297,11168,01.341,553
2023-12-26T06:08:42,42.805,6.029,CST-1368DR,4076,4297,11168,01.341,553
2023-12-26T06:11:44,42.805,6.029,CST-1368DR,4076,4296,11165,01.342,553
2023-12-26T06:14:45,42.805,6.029,CST-1368DR,4076,4295,11162,01.343,553
2023-12-26T06:17:47,42.805,6.029,CST-1368DR,4076,4297,11168,01.341,553
2023-12-26T06:20:48,42.805,6.029,CST-1368DR,4076,4297,11168,01.341,553
2023-12-26T06:23:50,42.805,6.029,CST-1368DR,4076,4296,11167,01.341,553
2023-12-26T06:26:52,42.805,6.029,CST-1368DR,4076,4296,11166,01.342,553
2023-12-26T06:29:53,42.805,6.029,CST-1368DR,4076,4293,11159,01.344,553
2023-12-26T06:32:55,42.805,6.029,CST-1368DR,4076,4295,11164,01.342,553
2023-12-26T06:35:56,42.805,6.029,CST-1368DR,4076,4295,11163,01.343,553
2023-12-26T06:38:58,42.805,6.029,CST-1368DR,4076,4294,11161,01.343,553
2023-12-26T06:42:00,42.805,6.029,CST-1368DR,4076,4295,11163,01.343,553
2023-12-26T06:45:01,42.805,6.029,CST-1368DR,4076,4295,11163,01.343,553
2023-12-26T06:48:03,42.805,6.029,CST-1368DR,4076,4295,11163,01.343,553
2023-12-26T06:51:04,42.805,6.029,CST-1368DR,4076,4290,11151,01.347,553
2023-12-26T06:54:06,42.805,6.029,CST-1368DR,4076,4294,11161,01.343,553
2023-12-26T06:57:07,42.805,6.029,CST-1368DR,4076,4295,11162,01.343,553
2023-12-26T07:00:09,42.805,6.029,CST-1368DR,4076,4294,11160,01.344,553
2023-12-26T07:03:11,42.805,6.029,CST-1368DR,4076,4294,11159,01.344,553
2023-12-26T07:06:12,42.805,6.029,CST-1368DR,4076,4292,11155,01.346,553
2023-12-26T07:09:14,42.805,6.029,CST-1368DR,4076,4296,11167,01.341,553
2023-12-26T07:12:15,42.805,6.029,CST-1368DR,4076,4293,11159,01.344,553
2023-12-26T07:15:17,42.805,6.029,CST-1368DR,4076,4293,11158,01.345,553
2023-12-26T07:18:18,42.805,6.029,CST-1368DR,4076,4293,11157,01.345,553
2023-12-26T07:21:20,42.805,6.029,CST-1368DR,4076,4300,11175,01.338,553
2023-12-26T07:24:22,42.805,6.029,CST-1368DR,4076,4294,11159,01.344,553
2023-12-26T07:27:23,42.805,6.029,CST-1368DR,4076,4295,11162,01.343,553
2023-12-26T07:30:25,42.805,6.029,CST-1368DR,4076,4291,11153,01.346,553
2023-12-26T07:33:26,42.805,6.029,CST-1368DR,4076,4294,11159,01.344,553
2023-12-26T07:36:28,42.805,6.029,CST-1368DR,4076,4295,11162,01.343,553
2023-12-26T07:39:29,42.805,6.029,CST-1368DR,4076,4296,11167,01.341,553
2023-12-26T07:42:31,42.805,6.029,CST-1368DR,4076,4297,11167,01.341,553
2023-12-26T07:45:33,42.805,6.029,CST-1368DR,4076,4294,11161,01.343,553
2023-12-26T07:48:34,42.805,6.029,CST-1368DR,4076,4297,11168,01.341,553
2023-12-26T07:51:36,42.805,6.029,CST-1368DR,4076,4295,11163,01.343,553
2023-12-26T07:54:37,42.805,6.029,CST-1368DR,4076,4298,11170,01.340,553
2023-12-26T07:57:39,42.805,6.029,CST-1368DR,4076,4294,11160,01.344,553
2023-12-26T08:00:41,42.805,6.029,CST-1368DR,4076,4297,11167,01.341,553
2023-12-26T08:03:42,42.805,6.029,CST-1368DR,4076,4296,11165,01.342,553
2023-12-26T08:06:44,42.805,6.029,CST-1368DR,4076,4298,11170,01.340,553
2023-12-26T08:09:45,42.805,6.029,CST-1368DR,4076,4298,11171,01.340,553
2023-12-26T08:12:47,42.805,6.029,CST-1368DR,4076,4294,11161,01.343,553
2023-12-26T08:15:48,42.805,6.029,CST-1368DR,4076,4296,11165,01.342,553
2023-12-26T08:18:50,42.805,6.029,CST-1368DR,4076,4295,11163,01.343,553
2023-12-26T08:21:52,42.805,6.029,CST-1368DR,4076,4298,11171,01.340,553
2023-12-26T08:24:53,42.805,6.029,CST-1368DR,4076,4296,11167,01.341,553
2023-12-26T08:27:55,42.805,6.029,CST-1368DR,4076,4296,11166,01.342,553
2023-12-26T08:30:56,42.805,6.029,CST-1368DR,4076,4295,11163,01.343,553
2023-12-26T08:33:58,42.805,6.029,CST-1368DR,4076,4297,11169,01.341,553
2023-12-26T08:36:59,42.805,6.029,CST-1368DR,4076,4295,11164,01.342,553
2023-12-26T08:40:01,42.805,6.029,CST-1368DR,4076,4295,11163,01.343,553
2023-12-26T08:43:03,42.805,6.029,CST-1368DR,4076,4297,11169,01.341,552
2023-12-26T08:46:04,42.805,6.029,CST-1368DR,4076,4296,11166,01.342,553
2023-12-26T08:49:06,42.805,6.029,CST-1368DR,4076,4295,11163,01.343,553
2023-12-26T08:52:07,42.805,6.029,CST-1368DR,4076,4295,11164,01.342,553
2023-12-26T08:55:09,42.805,6.029,CST-1368DR,4076,4296,11166,01.342,553
2023-12-26T08:58:10,42.805,6.029,CST-1368DR,4076,4295,11163,01.343,553
2023-12-26T09:01:12,42.805,6.029,CST-1368DR,4076,4297,11168,01.341,553
2023-12-26T09:04:14,42.805,6.029,CST-1368DR,4076,4302,11181,01.336,553
2023-12-26T09:07:15,42.805,6.029,CST-1368DR,4076,4297,11167,01.341,553
2023-12-26T09:10:17,42.805,6.029,CST-1368DR,4076,4295,11163,01.343,553
2023-12-26T09:13:18,42.805,6.029,CST-1368DR,4076,4294,11161,01.343,553
2023-12-26T09:16:20,42.805,6.029,CST-1368DR,4076,4294,11161,01.343,553
2023-12-26T09:19:22,42.805,6.029,CST-1368DR,4076,4297,11167,01.341,553
2023-12-26T09:22:23,42.805,6.029,CST-1368DR,4076,4293,11159,01.344,553
2023-12-26T09:25:25,42.805,6.029,CST-1368DR,4076,4298,11170,01.340,553
2023-12-26T09:28:26,42.805,6.029,CST-1368DR,4076,4295,11164,01.342,553
2023-12-26T09:31:28,42.805,6.029,CST-1368DR,4076,4297,11169,01.341,553
2023-12-26T09:34:29,42.805,6.029,CST-1368DR,4076,4296,11167,01.341,553
2023-12-26T09:37:31,42.805,6.029,CST-1368DR,4076,4298,11170,01.340,553
2023-12-26T09:40:33,42.805,6.029,CST-1368DR,4076,4297,11168,01.341,553
2023-12-26T09:43:34,42.805,6.029,CST-1368DR,4076,4297,11168,01.341,553
2023-12-26T09:46:36,42.805,6.029,CST-1368DR,4076,4298,11170,01.340,553
2023-12-26T09:49:37,42.805,6.029,CST-1368DR,4076,4297,11168,01.341,553
2023-12-26T09:52:39,42.805,6.029,CST-1368DR,4076,4297,11168,01.341,553
2023-12-26T09:55:40,42.805,6.029,CST-1368DR,4076,4297,11169,01.341,553
2023-12-26T09:58:42,42.805,6.029,CST-1368DR,4076,4295,11163,01.343,553
2023-12-26T10:01:44,42.805,6.029,CST-1368DR,4076,4298,11170,01.340,553
2023-12-26T10:04:45,42.805,6.029,CST-1368DR,4076,4296,11167,01.341,553
2023-12-26T10:07:47,42.805,6.029,CST-1368DR,4076,4296,11165,01.342,553
2023-12-26T10:10:48,42.805,6.029,CST-1368DR,4076,4297,11168,01.341,553
2023-12-26T10:13:50,42.805,6.029,CST-1368DR,4076,4297,11168,01.341,552
2023-12-26T10:16:52,42.805,6.029,CST-1368DR,4076,4298,11170,01.340,553
2023-12-26T10:19:53,42.805,6.029,CST-1368DR,4076,4296,11165,01.342,553
2023-12-26T10:22:55,42.805,6.029,CST-1368DR,4076,4285,11137,01.352,553
2023-12-26T10:25:56,42.805,6.029,CST-1368DR,4076,4289,11148,01.348,553
2023-12-26T10:28:58,42.805,6.029,CST-1368DR,4076,4289,11147,01.349,553
2023-12-26T10:31:59,42.805,6.029,CST-1368DR,4076,4288,11146,01.349,553
2023-12-26T10:35:01,42.805,6.029,CST-1368DR,4076,4289,11146,01.349,553
2023-12-26T10:38:03,42.805,6.029,CST-1368DR,4076,4290,11150,01.347,553
2023-12-26T10:41:04,42.805,6.029,CST-1368DR,4076,4288,11146,01.349,553
2023-12-26T10:44:06,42.805,6.029,CST-1368DR,4076,4291,11152,01.347,553
2023-12-26T10:47:07,42.805,6.029,CST-1368DR,4076,4291,11152,01.347,553
2023-12-26T10:50:09,42.805,6.029,CST-1368DR,4076,4290,11150,01.347,553
2023-12-26T10:53:10,42.805,6.029,CST-1368DR,4076,4290,11150,01.347,553
2023-12-26T10:56:12,42.805,6.029,CST-1368DR,4076,4290,11150,01.347,553
2023-12-26T10:59:14,42.805,6.029,CST-1368DR,4076,4290,11150,01.347,553
2023-12-26T11:02:15,42.805,6.029,CST-1368DR,4076,4289,11147,01.349,553
2023-12-26T11:05:17,42.805,6.029,CST-1368DR,4076,4289,11148,01.348,553
2023-12-26T11:08:18,42.805,6.029,CST-1368DR,4076,4287,11143,01.350,553
2023-12-26T11:11:20,42.805,6.029,CST-1368DR,4076,4291,11152,01.347,553
2023-12-26T11:14:22,42.805,6.029,CST-1368DR,4076,4289,11148,01.348,553
2023-12-26T11:17:23,42.805,6.029,CST-1368DR,4076,4289,11148,01.348,553
2023-12-26T11:20:25,42.805,6.029,CST-1368DR,4076,4291,11152,01.347,553
2023-12-26T11:23:26,42.805,6.029,CST-1368DR,4076,4290,11151,01.347,553
2023-12-26T11:26:28,42.805,6.029,CST-1368DR,4076,4290,11150,01.347,553
2023-12-26T11:29:29,42.805,6.029,CST-1368DR,4076,4290,11150,01.347,553
2023-12-26T11:32:34,42.805,6.029,CST-1368DR,4076,4295,11162,01.343,553
2023-12-26T11:35:35,42.805,6.029,CST-1368DR,4076,4291,11152,01.347,553
2023-12-26T11:38:37,42.805,6.029,CST-1368DR,4076,4289,11147,01.349,553
2023-12-26T11:41:39,42.805,6.029,CST-1368DR,4076,4290,11150,01.347,553
2023-12-26T11:44:40,42.805,6.029,CST-1368DR,4076,4290,11151,01.347,553
2023-12-26T11:47:42,42.805,6.029,CST-1368DR,4076,4292,11155,01.346,553
2023-12-26T11:50:43,42.805,6.029,CST-1368DR,4076,4288,11145,01.349,553
2023-12-26T11:53:45,42.805,6.029,CST-1368DR,4076,4287,11141,01.351,553
2023-12-26T11:56:46,42.805,6.029,CST-1368DR,4076,4290,11151,01.347,553
2023-12-26T11:59:48,42.805,6.029,CST-1368DR,4076,4291,11152,01.347,553
2023-12-26T12:02:50,42.805,6.029,CST-1368DR,4076,4291,11152,01.347,553
2023-12-26T12:05:51,42.805,6.029,CST-1368DR,4076,4289,11148,01.348,553
2023-12-26T12:08:53,42.805,6.029,CST-1368DR,4076,4290,11150,01.347,553
2023-12-26T12:11:54,42.805,6.029,CST-1368DR,4076,4291,11154,01.346,553
2023-12-26T12:14:56,42.805,6.029,CST-1368DR,4076,4292,11154,01.346,553
2023-12-26T12:17:57,42.805,6.029,CST-1368DR,4076,4291,11152,01.347,553
2023-12-26T12:20:59,42.805,6.029,CST-1368DR,4076,4290,11150,01.347,553
2023-12-26T12:24:01,42.805,6.029,CST-1368DR,4076,4290,11150,01.347,553
2023-12-26T12:27:02,42.805,6.029,CST-1368DR,4076,4291,11153,01.346,553
2023-12-26T12:30:04,42.805,6.029,CST-1368DR,4076,4290,11151,01.347,553
2023-12-26T12:33:05,42.805,6.029,CST-1368DR,4076,4289,11146,01.349,553
2023-12-26T12:36:07,42.805,6.029,CST-1368DR,4076,4288,11146,01.349,553
2023-12-26T12:39:09,42.805,6.029,CST-1368DR,4076,4291,11152,01.347,553
2023-12-26T12:42:10,42.805,6.029,CST-1368DR,4076,4290,11151,01.347,553
2023-12-26T12:45:12,42.805,6.029,CST-1368DR,4076,4288,11144,01.350,553
2023-12-26T12:48:13,42.805,6.029,CST-1368DR,4076,4290,11150,01.347,553
2023-12-26T12:51:15,42.805,6.029,CST-1368DR,4076,4288,11144,01.350,553
2023-12-26T12:54:16,42.805,6.029,CST-1368DR,4076,4290,11149,01.348,553
2023-12-26T12:57:18,42.805,6.029,CST-1368DR,4076,4289,11148,01.348,553
2023-12-26T13:00:20,42.805,6.029,CST-1368DR,4076,4290,11150,01.347,553
2023-12-26T13:03:21,42.805,6.029,CST-1368DR,4076,4288,11146,01.349,553
2023-12-26T13:06:23,42.805,6.029,CST-1368DR,4076,4290,11149,01.348,553
2023-12-26T13:09:24,42.805,6.029,CST-1368DR,4076,4291,11153,01.346,553
2023-12-26T13:12:26,42.805,6.029,CST-1368DR,4076,4288,11144,01.350,553
2023-12-26T13:15:27,42.805,6.029,CST-1368DR,4076,4288,11144,01.350,553
2023-12-26T13:18:29,42.805,6.029,CST-1368DR,4076,4288,11145,01.349,553
2023-12-26T13:21:31,42.805,6.029,CST-1368DR,4076,4287,11142,01.350,553
2023-12-26T13:24:32,42.805,6.029,CST-1368DR,4076,4289,11146,01.349,553
2023-12-26T13:27:34,42.805,6.029,CST-1368DR,4076,4290,11150,01.347,553
2023-12-26T13:30:37,42.805,6.029,CST-1368DR,4076,4290,11151,01.347,553
2023-12-26T13:33:39,42.805,6.029,CST-1368DR,4076,4289,11148,01.348,553
2023-12-26T13:36:40,42.805,6.029,CST-1368DR,4076,4289,11148,01.348,553
2023-12-26T13:39:42,42.805,6.029,CST-1368DR,4076,4289,11147,01.349,553
2023-12-26T13:42:43,42.805,6.029,CST-1368DR,4076,4290,11150,01.347,553
2023-12-26T13:45:45,42.805,6.029,CST-1368DR,4076,4288,11146,01.349,553
2023-12-26T13:48:46,42.805,6.029,CST-1368DR,4076,4292,11154,01.346,553
2023-12-26T13:51:48,42.805,6.029,CST-1368DR,4076,4291,11153,01.346,553
2023-12-26T13:54:50,42.805,6.029,CST-1368DR,4076,4289,11147,01.349,553
2023-12-26T13:57:51,42.805,6.029,CST-1368DR,4076,4292,11155,01.346,553
2023-12-26T14:00:53,42.805,6.029,CST-1368DR,4076,4289,11148,01.348,553
2023-12-26T14:03:54,42.805,6.029,CST-1368DR,4076,4289,11147,01.349,553
2023-12-26T14:06:56,42.805,6.029,CST-1368DR,4076,4293,11157,01.345,553
2023-12-26T14:09:57,42.805,6.029,CST-1368DR,4076,4291,11152,01.347,553
2023-12-26T14:12:59,42.805,6.029,CST-1368DR,4076,4288,11146,01.349,553
2023-12-26T14:16:01,42.805,6.029,CST-1368DR,4076,4290,11150,01.347,553
2023-12-26T14:19:02,42.805,6.029,CST-1368DR,4076,4292,11154,01.346,553
2023-12-26T14:22:04,42.805,6.029,CST-1368DR,4076,4290,11150,01.347,553
2023-12-26T14:25:05,42.805,6.029,CST-1368DR,4076,4290,11150,01.347,553
2023-12-26T14:28:07,42.805,6.029,CST-1368DR,4076,4290,11150,01.347,553
2023-12-26T14:31:09,42.805,6.029,CST-1368DR,4076,4291,11152,01.347,553
2023-12-26T14:34:10,42.805,6.029,CST-1368DR,4076,4292,11154,01.346,553
2023-12-26T14:37:12,42.805,6.029,CST-1368DR,4076,4291,11152,01.347,553
2023-12-26T14:40:13,42.805,6.029,CST-1368DR,4076,4290,11149,01.348,553
2023-12-26T14:43:15,42.805,6.029,CST-1368DR,4076,4291,11152,01.347,553
2023-12-26T14:46:16,42.805,6.029,CST-1368DR,4076,4291,11154,01.346,553
2023-12-26T14:49:18,42.805,6.029,CST-1368DR,4076,4293,11157,01.345,553
2023-12-26T14:52:20,42.805,6.029,CST-1368DR,4076,4291,11154,01.346,553
2023-12-26T14:55:21,42.805,6.029,CST-1368DR,4076,4291,11154,01.346,553
2023-12-26T14:58:23,42.805,6.029,CST-1368DR,4076,4291,11153,01.346,553
2023-12-26T15:01:24,42.805,6.029,CST-1368DR,4076,4292,11155,01.346,553
2023-12-26T15:04:26,42.805,6.029,CST-1368DR,4076,4291,11154,01.346,553
2023-12-26T15:07:27,42.805,6.029,CST-1368DR,4076,4293,11158,01.345,553
2023-12-26T15:10:29,42.805,6.029,CST-1368DR,4076,4293,11157,01.345,553
2023-12-26T15:13:31,42.805,6.029,CST-1368DR,4076,4293,11158,01.345,553
2023-12-26T15:16:32,42.805,6.029,CST-1368DR,4076,4293,11159,01.344,553
2023-12-26T15:19:34,42.805,6.029,CST-1368DR,4076,4293,11157,01.345,553
2023-12-26T15:22:35,42.805,6.029,CST-1368DR,4076,4293,11158,01.345,553
2023-12-26T15:25:37,42.805,6.029,CST-1368DR,4076,4293,11157,01.345,553
2023-12-26T15:28:39,42.805,6.029,CST-1368DR,4076,4292,11155,01.346,553
2023-12-26T15:31:40,42.805,6.029,CST-1368DR,4076,4291,11154,01.346,553
2023-12-26T15:34:42,42.805,6.029,CST-1368DR,4076,4292,11154,01.346,553
2023-12-26T15:37:43,42.805,6.029,CST-1368DR,4076,4289,11148,01.348,553
2023-12-26T15:40:45,42.805,6.029,CST-1368DR,4076,4292,11155,01.346,553
2023-12-26T15:43:47,42.805,6.029,CST-1368DR,4076,4289,11148,01.348,553
2023-12-26T15:46:48,42.805,6.029,CST-1368DR,4076,4292,11154,01.346,553
2023-12-26T15:49:50,42.805,6.029,CST-1368DR,4076,4291,11154,01.346,553
2023-12-26T15:52:51,42.805,6.029,CST-1368DR,4076,4290,11151,01.347,553
2023-12-26T15:55:53,42.805,6.029,CST-1368DR,4076,4291,11152,01.347,552
2023-12-26T15:58:54,42.805,6.029,CST-1368DR,4076,4293,11157,01.345,553
2023-12-26T16:01:56,42.805,6.029,CST-1368DR,4076,4292,11154,01.346,553
2023-12-26T16:04:58,42.805,6.029,CST-1368DR,4076,4292,11154,01.346,553
2023-12-26T16:07:59,42.805,6.029,CST-1368DR,4076,4290,11150,01.347,553
2023-12-26T16:11:01,42.805,6.029,CST-1368DR,4076,4290,11150,01.347,553
2023-12-26T16:14:02,42.805,6.029,CST-1368DR,4076,4292,11155,01.346,553
2023-12-26T16:17:04,42.805,6.029,CST-1368DR,4076,4290,11149,01.348,553
2023-12-26T16:20:05,42.805,6.029,CST-1368DR,4076,4291,11153,01.346,553
2023-12-26T16:23:07,42.805,6.029,CST-1368DR,4076,4293,11157,01.345,553
2023-12-26T16:26:09,42.805,6.029,CST-1368DR,4076,4293,11159,01.344,553
2023-12-26T16:29:10,42.805,6.029,CST-1368DR,4076,4293,11157,01.345,553
2023-12-26T16:32:12,42.805,6.029,CST-1368DR,4076,4291,11152,01.347,553
2023-12-26T16:35:13,42.805,6.029,CST-1368DR,4076,4294,11161,01.343,553
2023-12-26T16:38:15,42.805,6.029,CST-1368DR,4076,4292,11155,01.346,553